Terminal Aerodrome Forecast
Issued by NWS

Home | Current Version | Previous Version | Graphics & Text | Print | Product List | Glossary Off
Versions: 1 2 3 4 5 6 7 8 9 10 11 12 13 14 15 16 17 18 19 20 21 22 23 24 25 26 27 28 29 30 31 32 33 34

000
FTUS43 KDDC 021343 AAA
TAFHYS
TAF AMD
KHYS 021343Z 0214/0312 33015G22KT P6SM -TSRA BKN009CB
     FM021600 36010KT P6SM VCTS BKN035CB
     FM022000 11008KT P6SM SCT050 BKN150=

USA.gov is the U.S. government's official web portal to all federal, state and local government web resources and services.